Time,TemperatureF,DewpointF,PressureIn,WindDirection,WindDirectionDegrees,WindSpeedMPH,WindSpeedGustMPH,Humidity,HourlyPrecipIn,Conditions,Clouds,dailyrainin,SoftwareType,DateUTC
2013-06-30 00:02:00,62.3,58.1,29.33,WNW,284,1.0,2.0,86,0.00,,,0.00,Wunderground v.1.15,2013-06-30 05:02:00,
2013-06-30 00:07:00,62.3,58.4,29.33,WSW,242,1.0,2.0,87,0.00,,,0.00,Wunderground v.1.15,2013-06-30 05:07:00,
2013-06-30 00:12:00,62.3,58.1,29.33,SW,219,0.0,1.0,86,0.00,,,0.00,Wunderground v.1.15,2013-06-30 05:12:00,
2013-06-30 00:18:00,62.3,58.4,29.33,WSW,255,0.0,1.0,87,0.00,,,0.00,Wunderground v.1.15,2013-06-30 05:18:00,
2013-06-30 00:23:00,62.2,58.3,29.33,WSW,257,0.0,0.0,87,0.00,,,0.00,Wunderground v.1.15,2013-06-30 05:23:00,
2013-06-30 00:28:00,62.0,58.1,29.34,SW,226,1.0,1.0,87,0.00,,,0.00,Wunderground v.1.15,2013-06-30 05:28:00,
2013-06-30 00:33:00,61.9,58.0,29.34,WSW,239,0.0,2.0,87,0.00,,,0.00,Wunderground v.1.15,2013-06-30 05:33:00,
2013-06-30 00:39:00,61.8,58.2,29.34,SSW,210,1.0,2.0,88,0.00,,,0.00,Wunderground v.1.15,2013-06-30 05:39:00,
2013-06-30 00:44:00,61.7,58.1,29.33,SW,224,1.0,1.0,88,0.00,,,0.00,Wunderground v.1.15,2013-06-30 05:44:00,
2013-06-30 00:49:00,61.6,58.0,29.33,SW,219,0.0,1.0,88,0.00,,,0.00,Wunderground v.1.15,2013-06-30 05:49:00,
2013-06-30 00:55:00,61.5,57.9,29.33,SW,229,0.0,1.0,88,0.00,,,0.00,Wunderground v.1.15,2013-06-30 05:55:00,
2013-06-30 01:00:00,61.4,58.1,29.33,SW,224,0.0,0.0,89,0.00,,,0.00,Wunderground v.1.15,2013-06-30 06:00:00,
2013-06-30 01:05:00,61.3,58.0,29.33,SSW,205,2.0,2.0,89,0.00,,,0.00,Wunderground v.1.15,2013-06-30 06:05:00,
2013-06-30 01:10:00,61.2,57.9,29.33,SSW,211,0.0,1.0,89,0.00,,,0.00,Wunderground v.1.15,2013-06-30 06:10:00,
2013-06-30 01:16:00,61.1,57.8,29.33,SW,214,0.0,1.0,89,0.00,,,0.00,Wunderground v.1.15,2013-06-30 06:16:00,
2013-06-30 01:21:00,61.0,58.0,29.33,South,190,1.0,2.0,90,0.00,,,0.00,Wunderground v.1.15,2013-06-30 06:21:00,
2013-06-30 01:26:00,60.8,57.8,29.33,SW,215,0.0,2.0,90,0.00,,,0.00,Wunderground v.1.15,2013-06-30 06:26:00,
2013-06-30 01:32:00,60.8,57.8,29.33,SW,225,1.0,3.0,90,0.00,,,0.00,Wunderground v.1.15,2013-06-30 06:32:00,
2013-06-30 01:37:00,60.7,57.7,29.33,SW,224,0.0,3.0,90,0.00,,,0.00,Wunderground v.1.15,2013-06-30 06:37:00,
2013-06-30 01:42:00,60.7,58.1,29.33,SW,236,0.0,0.0,91,0.00,,,0.00,Wunderground v.1.15,2013-06-30 06:42:00,
2013-06-30 01:48:00,60.7,58.1,29.33,WSW,239,0.0,0.0,91,0.00,,,0.00,Wunderground v.1.15,2013-06-30 06:48:00,
2013-06-30 01:54:00,60.7,58.1,29.33,SW,236,0.0,0.0,91,0.00,,,0.00,Wunderground v.1.15,2013-06-30 06:54:00,
2013-06-30 01:59:00,60.7,58.1,29.33,SW,236,0.0,0.0,91,0.00,,,0.00,Wunderground v.1.15,2013-06-30 06:59:00,
2013-06-30 02:04:00,60.6,58.0,29.33,SW,236,0.0,0.0,91,0.00,,,0.00,Wunderground v.1.15,2013-06-30 07:04:00,
2013-06-30 02:09:00,60.6,58.0,29.33,SW,236,0.0,0.0,91,0.00,,,0.00,Wunderground v.1.15,2013-06-30 07:09:00,
2013-06-30 02:14:00,60.8,58.2,29.32,WSW,249,0.0,1.0,91,0.00,,,0.00,Wunderground v.1.15,2013-06-30 07:14:00,
2013-06-30 02:19:00,61.0,58.4,29.32,West,270,1.0,1.0,91,0.00,,,0.00,Wunderground v.1.15,2013-06-30 07:19:00,
2013-06-30 02:24:00,61.2,58.2,29.32,WSW,252,0.0,2.0,90,0.00,,,0.00,Wunderground v.1.15,2013-06-30 07:24:00,
2013-06-30 02:29:00,61.2,58.2,29.32,WSW,248,1.0,2.0,90,0.00,,,0.00,Wunderground v.1.15,2013-06-30 07:29:00,
2013-06-30 02:34:00,61.2,58.6,29.32,SW,225,0.0,1.0,91,0.00,,,0.00,Wunderground v.1.15,2013-06-30 07:34:00,
2013-06-30 02:39:00,61.0,58.4,29.32,SW,224,0.0,1.0,91,0.00,,,0.00,Wunderground v.1.15,2013-06-30 07:39:00,
2013-06-30 02:44:00,60.8,58.2,29.32,SW,218,0.0,0.0,91,0.00,,,0.00,Wunderground v.1.15,2013-06-30 07:44:00,
2013-06-30 02:49:00,60.6,58.0,29.32,SW,217,0.0,0.0,91,0.00,,,0.00,Wunderground v.1.15,2013-06-30 07:49:00,
2013-06-30 02:54:00,60.5,58.2,29.32,SW,216,0.0,0.0,92,0.00,,,0.00,Wunderground v.1.15,2013-06-30 07:54:00,
2013-06-30 02:59:00,60.3,58.0,29.32,SW,222,0.0,1.0,92,0.00,,,0.00,Wunderground v.1.15,2013-06-30 07:59:00,
2013-06-30 03:04:00,60.2,57.9,29.32,SW,219,0.0,1.0,92,0.00,,,0.00,Wunderground v.1.15,2013-06-30 08:04:00,
2013-06-30 03:09:00,60.2,58.2,29.32,SW,219,0.0,1.0,93,0.00,,,0.00,Wunderground v.1.15,2013-06-30 08:09:00,
2013-06-30 03:14:00,60.1,58.1,29.32,SW,219,0.0,0.0,93,0.00,,,0.00,Wunderground v.1.15,2013-06-30 08:14:00,
2013-06-30 03:19:00,60.0,58.0,29.32,SW,222,0.0,0.0,93,0.00,,,0.00,Wunderground v.1.15,2013-06-30 08:19:00,
2013-06-30 03:24:00,60.0,58.0,29.32,SW,222,0.0,0.0,93,0.00,,,0.00,Wunderground v.1.15,2013-06-30 08:24:00,
2013-06-30 03:29:00,60.0,58.0,29.32,SW,222,0.0,0.0,93,0.00,,,0.00,Wunderground v.1.15,2013-06-30 08:29:00,
2013-06-30 03:34:00,60.0,58.0,29.32,SW,224,0.0,1.0,93,0.00,,,0.00,Wunderground v.1.15,2013-06-30 08:34:00,
2013-06-30 03:39:00,60.0,58.0,29.32,SW,232,0.0,1.0,93,0.00,,,0.00,Wunderground v.1.15,2013-06-30 08:39:00,
2013-06-30 03:44:00,60.1,58.1,29.32,SW,236,0.0,1.0,93,0.00,,,0.00,Wunderground v.1.15,2013-06-30 08:44:00,
2013-06-30 03:50:00,60.1,58.1,29.32,West,260,0.0,0.0,93,0.00,,,0.00,Wunderground v.1.15,2013-06-30 08:50:00,
2013-06-30 03:55:00,60.2,58.2,29.32,West,279,0.0,0.0,93,0.00,,,0.00,Wunderground v.1.15,2013-06-30 08:55:00,
2013-06-30 04:00:00,60.2,58.2,29.32,SW,229,0.0,0.0,93,0.00,,,0.00,Wunderground v.1.15,2013-06-30 09:00:00,
2013-06-30 04:05:00,60.1,58.1,29.33,SSW,205,0.0,0.0,93,0.00,,,0.00,Wunderground v.1.15,2013-06-30 09:05:00,
2013-06-30 04:10:00,60.0,58.0,29.32,SW,219,0.0,0.0,93,0.00,,,0.00,Wunderground v.1.15,2013-06-30 09:10:00,
2013-06-30 04:15:00,60.1,58.1,29.32,West,264,3.0,3.0,93,0.00,,,0.00,Wunderground v.1.15,2013-06-30 09:15:00,
2013-06-30 04:20:00,60.2,58.2,29.32,West,273,0.0,1.0,93,0.00,,,0.00,Wunderground v.1.15,2013-06-30 09:20:00,
2013-06-30 04:25:00,60.3,58.3,29.33,West,281,1.0,1.0,93,0.00,,,0.00,Wunderground v.1.15,2013-06-30 09:25:00,
2013-06-30 04:30:00,60.4,58.4,29.33,West,264,2.0,2.0,93,0.00,,,0.00,Wunderground v.1.15,2013-06-30 09:30:00,
2013-06-30 04:35:00,60.7,58.7,29.33,West,277,0.0,3.0,93,0.00,,,0.00,Wunderground v.1.15,2013-06-30 09:35:00,
2013-06-30 04:40:00,60.8,58.5,29.33,West,271,4.0,4.0,92,0.00,,,0.00,Wunderground v.1.15,2013-06-30 09:40:00,
2013-06-30 04:45:00,61.0,58.7,29.33,West,273,2.0,4.0,92,0.00,,,0.00,Wunderground v.1.15,2013-06-30 09:45:00,
2013-06-30 04:50:00,61.1,58.8,29.33,WSW,255,0.0,3.0,92,0.00,,,0.00,Wunderground v.1.15,2013-06-30 09:50:00,
2013-06-30 04:56:00,61.1,58.8,29.33,West,266,0.0,5.0,92,0.00,,,0.00,Wunderground v.1.15,2013-06-30 09:56:00,
2013-06-30 05:01:00,61.1,58.8,29.33,West,263,1.0,1.0,92,0.00,,,0.00,Wunderground v.1.15,2013-06-30 10:01:00,
2013-06-30 05:06:00,61.0,58.7,29.33,West,276,0.0,3.0,92,0.00,,,0.00,Wunderground v.1.15,2013-06-30 10:06:00,
2013-06-30 05:11:00,61.0,59.0,29.33,WSW,252,1.0,4.0,93,0.00,,,0.00,Wunderground v.1.15,2013-06-30 10:11:00,
2013-06-30 05:16:00,61.0,59.0,29.33,West,266,3.0,4.0,93,0.00,,,0.00,Wunderground v.1.15,2013-06-30 10:16:00,
2013-06-30 05:21:00,61.1,59.1,29.33,West,277,2.0,3.0,93,0.00,,,0.00,Wunderground v.1.15,2013-06-30 10:21:00,
2013-06-30 05:26:00,61.1,59.1,29.33,WNW,292,1.0,3.0,93,0.00,,,0.00,Wunderground v.1.15,2013-06-30 10:26:00,
2013-06-30 05:31:00,61.2,59.2,29.33,West,278,1.0,5.0,93,0.00,,,0.00,Wunderground v.1.15,2013-06-30 10:31:00,
2013-06-30 05:36:00,61.2,59.2,29.34,WNW,290,4.0,10.0,93,0.00,,,0.00,Wunderground v.1.15,2013-06-30 10:36:00,
2013-06-30 05:41:00,61.1,59.1,29.34,WNW,294,2.0,10.0,93,0.00,,,0.00,Wunderground v.1.15,2013-06-30 10:41:00,
2013-06-30 05:46:00,61.0,59.0,29.34,West,273,3.0,10.0,93,0.00,,,0.00,Wunderground v.1.15,2013-06-30 10:46:00,
2013-06-30 05:51:00,60.6,58.6,29.35,West,281,2.0,8.0,93,0.00,,,0.00,Wunderground v.1.15,2013-06-30 10:51:00,
2013-06-30 05:56:00,60.3,58.6,29.35,NW,319,6.0,9.0,94,0.00,,,0.00,Wunderground v.1.15,2013-06-30 10:56:00,
2013-06-30 06:01:00,60.1,58.4,29.35,West,273,3.0,7.0,94,0.00,,,0.00,Wunderground v.1.15,2013-06-30 11:01:00,
2013-06-30 06:06:00,60.1,58.7,29.36,NE,49,5.0,7.0,95,0.00,,,0.00,Wunderground v.1.15,2013-06-30 11:06:00,
2013-06-30 06:11:00,60.0,58.6,29.36,NW,306,3.0,5.0,95,0.00,,,0.00,Wunderground v.1.15,2013-06-30 11:11:00,
2013-06-30 06:16:00,60.0,58.6,29.36,North,349,4.0,5.0,95,0.00,,,0.00,Wunderground v.1.15,2013-06-30 11:16:00,
2013-06-30 06:21:00,59.9,58.5,29.37,NW,308,3.0,6.0,95,0.00,,,0.00,Wunderground v.1.15,2013-06-30 11:21:00,
2013-06-30 06:27:00,59.9,58.5,29.37,WNW,299,0.0,7.0,95,0.00,,,0.00,Wunderground v.1.15,2013-06-30 11:27:00,
2013-06-30 06:32:00,59.9,58.8,29.37,NW,321,2.0,4.0,96,0.00,,,0.00,Wunderground v.1.15,2013-06-30 11:32:00,
2013-06-30 06:37:00,60.1,59.0,29.37,NNW,335,2.0,6.0,96,0.00,,,0.00,Wunderground v.1.15,2013-06-30 11:37:00,
2013-06-30 06:42:00,60.1,59.0,29.37,NNW,345,5.0,8.0,96,0.00,,,0.00,Wunderground v.1.15,2013-06-30 11:42:00,
2013-06-30 06:47:00,60.1,59.0,29.38,NW,326,5.0,8.0,96,0.00,,,0.00,Wunderground v.1.15,2013-06-30 11:47:00,
2013-06-30 06:52:00,60.1,59.0,29.38,WNW,295,1.0,4.0,96,0.00,,,0.00,Wunderground v.1.15,2013-06-30 11:52:00,
2013-06-30 06:57:00,60.1,59.0,29.38,NW,317,4.0,7.0,96,0.00,,,0.00,Wunderground v.1.15,2013-06-30 11:57:00,
2013-06-30 07:02:00,60.1,59.0,29.38,NW,321,2.0,7.0,96,0.00,,,0.00,Wunderground v.1.15,2013-06-30 12:02:00,
2013-06-30 07:07:00,60.3,59.2,29.38,NW,306,2.0,7.0,96,0.00,,,0.00,Wunderground v.1.15,2013-06-30 12:07:00,
2013-06-30 07:12:00,60.5,59.4,29.38,NW,314,2.0,5.0,96,0.00,,,0.00,Wunderground v.1.15,2013-06-30 12:12:00,
2013-06-30 07:17:00,60.7,59.6,29.38,NNW,335,2.0,5.0,96,0.00,,,0.00,Wunderground v.1.15,2013-06-30 12:17:00,
2013-06-30 07:22:00,60.7,59.3,29.38,WNW,302,4.0,8.0,95,0.00,,,0.00,Wunderground v.1.15,2013-06-30 12:22:00,
2013-06-30 07:27:00,60.8,59.4,29.38,NW,311,0.0,8.0,95,0.00,,,0.00,Wunderground v.1.15,2013-06-30 12:27:00,
2013-06-30 07:32:00,61.0,59.6,29.38,NW,322,3.0,6.0,95,0.00,,,0.00,Wunderground v.1.15,2013-06-30 12:32:00,
2013-06-30 07:37:00,61.1,59.7,29.39,NW,309,4.0,6.0,95,0.00,,,0.00,Wunderground v.1.15,2013-06-30 12:37:00,
2013-06-30 07:42:00,61.2,59.8,29.39,WNW,298,4.0,5.0,95,0.00,,,0.00,Wunderground v.1.15,2013-06-30 12:42:00,
2013-06-30 07:47:00,61.3,59.9,29.39,NW,309,1.0,7.0,95,0.00,,,0.00,Wunderground v.1.15,2013-06-30 12:47:00,
2013-06-30 07:52:00,61.4,60.0,29.39,WNW,300,2.0,4.0,95,0.00,,,0.00,Wunderground v.1.15,2013-06-30 12:52:00,
2013-06-30 07:57:00,61.7,60.3,29.39,NW,313,4.0,6.0,95,0.00,,,0.00,Wunderground v.1.15,2013-06-30 12:57:00,
2013-06-30 08:02:00,61.9,60.2,29.39,NW,318,2.0,5.0,94,0.00,,,0.00,Wunderground v.1.15,2013-06-30 13:02:00,
2013-06-30 08:07:00,62.1,60.4,29.40,NW,320,2.0,8.0,94,0.00,,,0.00,Wunderground v.1.15,2013-06-30 13:07:00,
2013-06-30 08:12:00,62.3,60.2,29.40,NNE,20,6.0,6.0,93,0.00,,,0.00,Wunderground v.1.15,2013-06-30 13:12:00,
2013-06-30 08:17:00,62.4,60.3,29.40,North,7,2.0,7.0,93,0.00,,,0.00,Wunderground v.1.15,2013-06-30 13:17:00,
2013-06-30 08:22:00,62.4,60.3,29.40,NNW,329,5.0,8.0,93,0.00,,,0.00,Wunderground v.1.15,2013-06-30 13:22:00,
2013-06-30 08:27:00,62.4,60.3,29.40,NW,311,3.0,8.0,93,0.00,,,0.00,Wunderground v.1.15,2013-06-30 13:27:00,
2013-06-30 08:32:00,62.6,60.5,29.40,NNE,18,2.0,4.0,93,0.00,,,0.00,Wunderground v.1.15,2013-06-30 13:32:00,
2013-06-30 08:37:00,62.6,60.2,29.40,NNE,29,3.0,5.0,92,0.00,,,0.00,Wunderground v.1.15,2013-06-30 13:37:00,
2013-06-30 08:43:00,62.6,60.5,29.40,NNE,15,4.0,4.0,93,0.00,,,0.00,Wunderground v.1.15,2013-06-30 13:43:00,
2013-06-30 08:48:00,62.5,60.1,29.40,North,10,0.0,5.0,92,0.00,,,0.00,Wunderground v.1.15,2013-06-30 13:48:00,
2013-06-30 08:53:00,62.7,60.3,29.40,North,1,0.0,3.0,92,0.00,,,0.00,Wunderground v.1.15,2013-06-30 13:53:00,
2013-06-30 08:58:00,62.9,60.2,29.41,NE,47,0.0,3.0,91,0.00,,,0.00,Wunderground v.1.15,2013-06-30 13:58:00,
2013-06-30 09:03:00,63.3,60.6,29.41,North,11,0.0,1.0,91,0.00,,,0.00,Wunderground v.1.15,2013-06-30 14:03:00,
2013-06-30 09:08:00,63.8,60.5,29.41,ENE,70,2.0,2.0,89,0.00,,,0.00,Wunderground v.1.15,2013-06-30 14:08:00,
2013-06-30 09:13:00,64.1,60.8,29.40,East,79,0.0,2.0,89,0.00,,,0.00,Wunderground v.1.15,2013-06-30 14:13:00,
2013-06-30 09:18:00,64.9,61.3,29.40,ESE,115,0.0,2.0,88,0.00,,,0.00,Wunderground v.1.15,2013-06-30 14:18:00,
2013-06-30 09:23:00,65.4,60.8,29.40,NNW,338,0.0,0.0,85,0.00,,,0.00,Wunderground v.1.15,2013-06-30 14:23:00,
2013-06-30 09:28:00,66.4,61.1,29.40,ESE,103,1.0,2.0,83,0.00,,,0.00,Wunderground v.1.15,2013-06-30 14:28:00,
2013-06-30 09:33:00,66.5,60.5,29.40,NE,50,2.0,3.0,81,0.00,,,0.00,Wunderground v.1.15,2013-06-30 14:33:00,
2013-06-30 09:38:00,66.5,61.2,29.40,West,264,0.0,3.0,83,0.00,,,0.00,Wunderground v.1.15,2013-06-30 14:38:00,
2013-06-30 09:43:00,67.8,61.4,29.40,WNW,291,1.0,3.0,80,0.00,,,0.00,Wunderground v.1.15,2013-06-30 14:43:00,
2013-06-30 09:48:00,67.5,60.8,29.40,West,281,0.0,4.0,79,0.00,,,0.00,Wunderground v.1.15,2013-06-30 14:48:00,
2013-06-30 09:53:00,67.9,61.1,29.40,SSW,212,1.0,1.0,79,0.00,,,0.00,Wunderground v.1.15,2013-06-30 14:53:00,
2013-06-30 09:58:00,68.8,61.7,29.40,North,9,1.0,2.0,78,0.00,,,0.00,Wunderground v.1.15,2013-06-30 14:58:00,
2013-06-30 10:03:00,69.0,61.9,29.40,NW,309,2.0,2.0,78,0.00,,,0.00,Wunderground v.1.15,2013-06-30 15:03:00,
2013-06-30 10:08:00,69.1,61.2,29.40,North,9,1.0,3.0,76,0.00,,,0.00,Wunderground v.1.15,2013-06-30 15:08:00,
2013-06-30 10:13:00,68.8,61.3,29.40,NE,54,1.0,5.0,77,0.00,,,0.00,Wunderground v.1.15,2013-06-30 15:13:00,
2013-06-30 10:18:00,69.1,61.6,29.40,SE,135,1.0,5.0,77,0.00,,,0.00,Wunderground v.1.15,2013-06-30 15:18:00,
2013-06-30 10:23:00,69.5,60.8,29.40,NE,48,3.0,5.0,74,0.00,,,0.00,Wunderground v.1.15,2013-06-30 15:23:00,
2013-06-30 10:28:00,68.9,61.0,29.40,NE,49,4.0,5.0,76,0.00,,,0.00,Wunderground v.1.15,2013-06-30 15:28:00,
2013-06-30 10:33:00,68.4,61.3,29.40,NE,38,5.0,6.0,78,0.00,,,0.00,Wunderground v.1.15,2013-06-30 15:33:00,
2013-06-30 10:38:00,68.1,61.3,29.41,North,349,3.0,6.0,79,0.00,,,0.00,Wunderground v.1.15,2013-06-30 15:38:00,
2013-06-30 10:43:00,68.2,61.8,29.40,NW,306,0.0,3.0,80,0.00,,,0.00,Wunderground v.1.15,2013-06-30 15:43:00,
2013-06-30 10:48:00,67.8,62.1,29.41,East,84,2.0,4.0,82,0.00,,,0.00,Wunderground v.1.15,2013-06-30 15:48:00,
2013-06-30 10:54:00,67.4,61.7,29.41,North,349,2.0,5.0,82,0.00,,,0.00,Wunderground v.1.15,2013-06-30 15:54:00,
2013-06-30 10:59:00,67.2,61.5,29.40,NNW,330,3.0,5.0,82,0.00,,,0.00,Wunderground v.1.15,2013-06-30 15:59:00,
2013-06-30 11:04:00,67.6,61.6,29.41,NW,311,4.0,8.0,81,0.00,,,0.00,Wunderground v.1.15,2013-06-30 16:04:00,
2013-06-30 11:09:00,67.8,62.1,29.41,NW,322,8.0,9.0,82,0.00,,,0.00,Wunderground v.1.15,2013-06-30 16:09:00,
2013-06-30 11:14:00,67.8,62.1,29.41,WNW,290,3.0,9.0,82,0.00,,,0.00,Wunderground v.1.15,2013-06-30 16:14:00,
2013-06-30 11:19:00,67.9,61.1,29.41,North,356,6.0,9.0,79,0.00,,,0.00,Wunderground v.1.15,2013-06-30 16:19:00,
2013-06-30 11:24:00,68.0,61.6,29.41,North,360,5.0,8.0,80,0.00,,,0.00,Wunderground v.1.15,2013-06-30 16:24:00,
2013-06-30 11:29:00,68.4,62.0,29.41,North,7,3.0,8.0,80,0.00,,,0.00,Wunderground v.1.15,2013-06-30 16:29:00,
2013-06-30 11:34:00,68.3,61.9,29.41,NNE,25,2.0,6.0,80,0.00,,,0.00,Wunderground v.1.15,2013-06-30 16:34:00,
2013-06-30 11:39:00,68.7,61.9,29.40,North,355,1.0,6.0,79,0.00,,,0.00,Wunderground v.1.15,2013-06-30 16:39:00,
2013-06-30 11:44:00,69.0,61.9,29.40,ENE,72,0.0,4.0,78,0.00,,,0.00,Wunderground v.1.15,2013-06-30 16:44:00,
2013-06-30 11:49:00,70.2,62.3,29.40,SE,126,0.0,4.0,76,0.00,,,0.00,Wunderground v.1.15,2013-06-30 16:49:00,
2013-06-30 11:54:00,70.9,61.8,29.41,NW,320,0.0,6.0,73,0.00,,,0.00,Wunderground v.1.15,2013-06-30 16:54:00,
2013-06-30 11:59:00,70.7,62.0,29.41,North,355,4.0,7.0,74,0.00,,,0.00,Wunderground v.1.15,2013-06-30 16:59:00,
2013-06-30 12:04:00,71.2,62.1,29.41,NNW,337,13.0,15.0,73,0.00,,,0.00,Wunderground v.1.15,2013-06-30 17:04:00,
2013-06-30 12:09:00,69.4,61.9,29.41,NW,308,11.0,15.0,77,0.00,,,0.00,Wunderground v.1.15,2013-06-30 17:09:00,
2013-06-30 12:14:00,68.2,62.5,29.41,NW,326,15.0,18.0,82,0.00,,,0.00,Wunderground v.1.15,2013-06-30 17:14:00,
2013-06-30 12:19:00,66.7,62.4,29.41,NNW,340,11.0,18.0,86,0.00,,,0.01,Wunderground v.1.15,2013-06-30 17:19:00,
2013-06-30 12:24:00,65.5,62.2,29.41,WNW,295,4.0,10.0,89,0.14,,,0.02,Wunderground v.1.15,2013-06-30 17:24:00,
2013-06-30 12:29:00,65.2,62.5,29.41,North,360,1.0,10.0,91,0.07,,,0.02,Wunderground v.1.15,2013-06-30 17:29:00,
2013-06-30 12:34:00,65.3,62.6,29.41,NW,319,2.0,4.0,91,0.04,,,0.02,Wunderground v.1.15,2013-06-30 17:34:00,
2013-06-30 12:39:00,65.4,61.8,29.41,NW,311,7.0,9.0,88,0.00,,,0.02,Wunderground v.1.15,2013-06-30 17:39:00,
2013-06-30 12:44:00,65.6,62.3,29.41,WSW,255,1.0,5.0,89,0.00,,,0.02,Wunderground v.1.15,2013-06-30 17:44:00,
2013-06-30 12:49:00,65.7,61.7,29.41,WNW,303,4.0,6.0,87,0.00,,,0.02,Wunderground v.1.15,2013-06-30 17:49:00,
2013-06-30 12:54:00,65.6,61.9,29.41,WNW,298,2.0,4.0,88,0.00,,,0.02,Wunderground v.1.15,2013-06-30 17:54:00,
2013-06-30 12:59:00,65.8,62.1,29.41,WSW,239,1.0,4.0,88,0.00,,,0.02,Wunderground v.1.15,2013-06-30 17:59:00,
2013-06-30 13:04:00,66.1,62.1,29.41,WNW,295,3.0,4.0,87,0.00,,,0.02,Wunderground v.1.15,2013-06-30 18:04:00,
2013-06-30 13:09:00,66.3,62.6,29.41,SW,221,0.0,6.0,88,0.00,,,0.02,Wunderground v.1.15,2013-06-30 18:09:00,
2013-06-30 13:14:00,66.9,62.6,29.41,WNW,283,3.0,3.0,86,0.00,,,0.02,Wunderground v.1.15,2013-06-30 18:14:00,
2013-06-30 13:19:00,67.1,62.4,29.41,WNW,285,3.0,5.0,85,0.00,,,0.02,Wunderground v.1.15,2013-06-30 18:19:00,
2013-06-30 13:24:00,67.4,63.1,29.41,WSW,255,0.0,3.0,86,0.00,,,0.02,Wunderground v.1.15,2013-06-30 18:24:00,
2013-06-30 13:29:00,68.0,63.3,29.41,WSW,250,1.0,3.0,85,0.00,,,0.02,Wunderground v.1.15,2013-06-30 18:29:00,
2013-06-30 13:34:00,68.3,63.6,29.40,West,271,3.0,3.0,85,0.00,,,0.02,Wunderground v.1.15,2013-06-30 18:34:00,
2013-06-30 13:39:00,68.8,63.8,29.40,WSW,242,0.0,3.0,84,0.00,,,0.02,Wunderground v.1.15,2013-06-30 18:39:00,
2013-06-30 13:44:00,69.4,63.7,29.40,SW,221,1.0,2.0,82,0.00,,,0.02,Wunderground v.1.15,2013-06-30 18:44:00,
2013-06-30 13:49:00,70.0,64.2,29.40,SSE,160,3.0,4.0,82,0.00,,,0.02,Wunderground v.1.15,2013-06-30 18:49:00,
2013-06-30 13:54:00,69.7,63.6,29.40,SW,228,0.0,4.0,81,0.00,,,0.02,Wunderground v.1.15,2013-06-30 18:54:00,
2013-06-30 13:59:00,69.4,62.6,29.41,WNW,300,4.0,8.0,79,0.00,,,0.02,Wunderground v.1.15,2013-06-30 18:59:00,
2013-06-30 14:04:00,68.5,62.1,29.41,WNW,297,2.0,8.0,80,0.00,,,0.02,Wunderground v.1.15,2013-06-30 19:04:00,
2013-06-30 14:09:00,68.1,61.7,29.41,NE,40,4.0,8.0,80,0.00,,,0.02,Wunderground v.1.15,2013-06-30 19:09:00,
2013-06-30 14:14:00,67.6,61.2,29.41,East,83,2.0,8.0,80,0.00,,,0.02,Wunderground v.1.15,2013-06-30 19:14:00,
2013-06-30 14:19:00,67.3,61.6,29.41,NNE,20,3.0,8.0,82,0.00,,,0.02,Wunderground v.1.15,2013-06-30 19:19:00,
2013-06-30 14:24:00,67.8,61.8,29.40,ESE,113,0.0,5.0,81,0.00,,,0.02,Wunderground v.1.15,2013-06-30 19:24:00,
2013-06-30 14:29:00,68.4,62.0,29.40,SSE,152,3.0,5.0,80,0.00,,,0.02,Wunderground v.1.15,2013-06-30 19:29:00,
2013-06-30 14:34:00,68.8,61.3,29.40,East,92,0.0,2.0,77,0.00,,,0.02,Wunderground v.1.15,2013-06-30 19:34:00,
2013-06-30 14:39:00,69.6,62.1,29.40,SSW,208,2.0,2.0,77,0.00,,,0.02,Wunderground v.1.15,2013-06-30 19:39:00,
2013-06-30 14:44:00,70.0,62.1,29.40,SE,138,1.0,3.0,76,0.00,,,0.02,Wunderground v.1.15,2013-06-30 19:44:00,
2013-06-30 14:50:00,69.9,62.0,29.40,SW,215,1.0,2.0,76,0.00,,,0.02,Wunderground v.1.15,2013-06-30 19:50:00,
2013-06-30 14:55:00,69.8,62.3,29.40,WSW,239,1.0,3.0,77,0.00,,,0.02,Wunderground v.1.15,2013-06-30 19:55:00,
2013-06-30 14:59:00,69.7,62.2,29.40,West,276,1.0,1.0,77,0.00,,,0.02,Wunderground v.1.15,2013-06-30 19:59:00,
2013-06-30 15:04:00,69.5,62.7,29.40,SW,231,0.0,3.0,79,0.00,,,0.02,Wunderground v.1.15,2013-06-30 20:04:00,
2013-06-30 15:10:00,69.2,62.8,29.40,West,273,1.0,2.0,80,0.00,,,0.02,Wunderground v.1.15,2013-06-30 20:10:00,
2013-06-30 15:15:00,68.9,62.8,29.40,WSW,242,3.0,5.0,81,0.00,,,0.02,Wunderground v.1.15,2013-06-30 20:15:00,
2013-06-30 15:20:00,68.4,62.3,29.41,SW,236,1.0,3.0,81,0.00,,,0.02,Wunderground v.1.15,2013-06-30 20:20:00,
2013-06-30 15:25:00,68.5,62.4,29.40,SW,232,1.0,3.0,81,0.00,,,0.02,Wunderground v.1.15,2013-06-30 20:25:00,
2013-06-30 15:30:00,68.5,62.8,29.40,WSW,256,0.0,1.0,82,0.00,,,0.02,Wunderground v.1.15,2013-06-30 20:30:00,
2013-06-30 15:35:00,68.5,62.4,29.40,WSW,256,2.0,2.0,81,0.00,,,0.02,Wunderground v.1.15,2013-06-30 20:35:00,
2013-06-30 15:40:00,68.5,62.8,29.40,West,276,0.0,1.0,82,0.00,,,0.02,Wunderground v.1.15,2013-06-30 20:40:00,
2013-06-30 15:45:00,68.6,63.2,29.40,SW,218,1.0,3.0,83,0.00,,,0.02,Wunderground v.1.15,2013-06-30 20:45:00,
2013-06-30 15:50:00,68.6,63.6,29.40,WSW,249,0.0,2.0,84,0.00,,,0.02,Wunderground v.1.15,2013-06-30 20:50:00,
2013-06-30 15:55:00,69.0,62.6,29.41,East,79,0.0,2.0,80,0.00,,,0.02,Wunderground v.1.15,2013-06-30 20:55:00,
2013-06-30 16:00:00,69.5,63.1,29.41,SW,222,2.0,2.0,80,0.00,,,0.02,Wunderground v.1.15,2013-06-30 21:00:00,
2013-06-30 16:05:00,69.5,63.4,29.40,WSW,253,2.0,2.0,81,0.00,,,0.02,Wunderground v.1.15,2013-06-30 21:05:00,
2013-06-30 16:10:00,69.6,63.2,29.41,WSW,248,2.0,3.0,80,0.00,,,0.02,Wunderground v.1.15,2013-06-30 21:10:00,
2013-06-30 16:15:00,69.4,63.3,29.40,WNW,288,0.0,4.0,81,0.00,,,0.02,Wunderground v.1.15,2013-06-30 21:15:00,
2013-06-30 16:20:00,69.2,63.5,29.40,SW,235,2.0,2.0,82,0.00,,,0.02,Wunderground v.1.15,2013-06-30 21:20:00,
2013-06-30 16:25:00,68.8,63.4,29.41,West,260,0.0,2.0,83,0.00,,,0.02,Wunderground v.1.15,2013-06-30 21:25:00,
2013-06-30 16:30:00,68.7,62.6,29.41,WNW,302,3.0,3.0,81,0.00,,,0.02,Wunderground v.1.15,2013-06-30 21:30:00,
2013-06-30 16:35:00,68.5,62.8,29.41,West,269,0.0,3.0,82,0.00,,,0.02,Wunderground v.1.15,2013-06-30 21:35:00,
2013-06-30 16:40:00,68.2,62.5,29.41,WNW,293,2.0,2.0,82,0.00,,,0.03,Wunderground v.1.15,2013-06-30 21:40:00,
2013-06-30 16:45:00,67.6,62.6,29.41,SSW,211,0.0,2.0,84,0.19,,,0.04,Wunderground v.1.15,2013-06-30 21:45:00,
2013-06-30 16:50:00,67.4,63.4,29.41,SW,229,1.0,2.0,87,0.10,,,0.05,Wunderground v.1.15,2013-06-30 21:50:00,
2013-06-30 16:55:00,67.1,63.4,29.41,WSW,246,2.0,2.0,88,0.08,,,0.05,Wunderground v.1.15,2013-06-30 21:55:00,
2013-06-30 17:00:00,66.9,63.6,29.41,WSW,245,0.0,0.0,89,0.05,,,0.05,Wunderground v.1.15,2013-06-30 22:00:00,
2013-06-30 17:05:00,66.8,63.5,29.40,WNW,294,2.0,2.0,89,0.00,,,0.05,Wunderground v.1.15,2013-06-30 22:05:00,
2013-06-30 17:10:00,66.7,63.0,29.40,WNW,288,1.0,2.0,88,0.00,,,0.05,Wunderground v.1.15,2013-06-30 22:10:00,
2013-06-30 17:15:00,66.7,63.7,29.40,West,280,2.0,6.0,90,0.16,,,0.06,Wunderground v.1.15,2013-06-30 22:15:00,
2013-06-30 17:20:00,66.3,63.0,29.40,WNW,293,1.0,2.0,89,0.12,,,0.07,Wunderground v.1.15,2013-06-30 22:20:00,
2013-06-30 17:25:00,66.3,63.0,29.40,West,262,1.0,2.0,89,0.06,,,0.07,Wunderground v.1.15,2013-06-30 22:25:00,
2013-06-30 17:30:00,66.1,63.1,29.40,NW,314,2.0,2.0,90,0.04,,,0.07,Wunderground v.1.15,2013-06-30 22:30:00,
2013-06-30 17:35:00,66.4,63.7,29.41,WNW,300,2.0,7.0,91,0.04,,,0.08,Wunderground v.1.15,2013-06-30 22:35:00,
2013-06-30 17:40:00,66.2,63.5,29.41,NW,309,6.0,9.0,91,0.12,,,0.09,Wunderground v.1.15,2013-06-30 22:40:00,
2013-06-30 17:45:00,65.9,63.2,29.42,North,354,3.0,9.0,91,0.06,,,0.09,Wunderground v.1.15,2013-06-30 22:45:00,
2013-06-30 17:50:00,65.4,63.0,29.42,WNW,298,3.0,6.0,92,0.04,,,0.09,Wunderground v.1.15,2013-06-30 22:50:00,
2013-06-30 17:55:00,65.0,62.9,29.42,WSW,256,3.0,10.0,93,0.24,,,0.11,Wunderground v.1.15,2013-06-30 22:55:00,
2013-06-30 18:01:00,64.5,62.1,29.43,NW,311,4.0,9.0,92,0.40,,,0.15,Wunderground v.1.15,2013-06-30 23:01:00,
2013-06-30 18:06:00,63.9,61.8,29.42,WNW,285,4.0,9.0,93,0.18,,,0.17,Wunderground v.1.15,2013-06-30 23:06:00,
2013-06-30 18:11:00,63.6,61.8,29.42,WNW,302,1.0,4.0,94,0.56,,,0.21,Wunderground v.1.15,2013-06-30 23:11:00,
2013-06-30 18:16:00,63.6,61.8,29.42,West,278,2.0,4.0,94,0.38,,,0.24,Wunderground v.1.15,2013-06-30 23:16:00,
2013-06-30 18:21:00,63.4,61.6,29.42,WNW,300,3.0,4.0,94,0.21,,,0.26,Wunderground v.1.15,2013-06-30 23:21:00,
2013-06-30 18:26:00,63.3,61.8,29.42,West,277,1.0,4.0,95,0.16,,,0.27,Wunderground v.1.15,2013-06-30 23:26:00,
2013-06-30 18:31:00,63.4,61.9,29.42,West,271,1.0,2.0,95,0.13,,,0.28,Wunderground v.1.15,2013-06-30 23:31:00,
2013-06-30 18:36:00,63.3,61.8,29.42,West,273,0.0,2.0,95,0.06,,,0.28,Wunderground v.1.15,2013-06-30 23:36:00,
2013-06-30 18:41:00,63.4,61.9,29.42,West,277,0.0,1.0,95,0.04,,,0.28,Wunderground v.1.15,2013-06-30 23:41:00,
2013-06-30 18:46:00,63.5,62.0,29.42,West,266,1.0,1.0,95,0.00,,,0.28,Wunderground v.1.15,2013-06-30 23:46:00,
2013-06-30 18:51:00,63.4,61.9,29.42,West,278,1.0,3.0,95,0.00,,,0.28,Wunderground v.1.15,2013-06-30 23:51:00,
2013-06-30 18:56:00,63.5,62.0,29.42,West,280,3.0,3.0,95,0.00,,,0.28,Wunderground v.1.15,2013-06-30 23:56:00,
2013-06-30 19:01:00,63.7,62.2,29.42,West,281,2.0,2.0,95,0.00,,,0.28,Wunderground v.1.15,2013-07-01 00:01:00,
2013-06-30 19:06:00,63.7,62.2,29.41,West,280,0.0,4.0,95,0.00,,,0.28,Wunderground v.1.15,2013-07-01 00:06:00,
2013-06-30 19:11:00,63.9,62.1,29.41,NW,304,1.0,1.0,94,0.00,,,0.28,Wunderground v.1.15,2013-07-01 00:11:00,
2013-06-30 19:16:00,64.2,62.1,29.41,NW,306,0.0,4.0,93,0.00,,,0.28,Wunderground v.1.15,2013-07-01 00:16:00,
2013-06-30 19:21:00,64.3,62.2,29.41,NW,306,2.0,2.0,93,0.00,,,0.28,Wunderground v.1.15,2013-07-01 00:21:00,
2013-06-30 19:26:00,64.5,62.4,29.41,West,268,0.0,3.0,93,0.00,,,0.28,Wunderground v.1.15,2013-07-01 00:26:00,
2013-06-30 19:31:00,64.7,62.6,29.41,West,259,1.0,1.0,93,0.00,,,0.28,Wunderground v.1.15,2013-07-01 00:31:00,
2013-06-30 19:36:00,65.2,63.1,29.41,West,276,1.0,2.0,93,0.00,,,0.28,Wunderground v.1.15,2013-07-01 00:36:00,
2013-06-30 19:41:00,65.2,62.8,29.42,NW,321,2.0,2.0,92,0.00,,,0.28,Wunderground v.1.15,2013-07-01 00:41:00,
2013-06-30 19:46:00,64.9,62.5,29.42,NW,315,4.0,4.0,92,0.00,,,0.28,Wunderground v.1.15,2013-07-01 00:46:00,
2013-06-30 19:51:00,64.8,62.7,29.42,NW,304,2.0,2.0,93,0.00,,,0.28,Wunderground v.1.15,2013-07-01 00:51:00,
2013-06-30 19:56:00,64.6,62.5,29.42,NW,309,5.0,5.0,93,0.00,,,0.28,Wunderground v.1.15,2013-07-01 00:56:00,
2013-06-30 20:01:00,64.6,62.8,29.42,West,266,0.0,2.0,94,0.00,,,0.28,Wunderground v.1.15,2013-07-01 01:01:00,
2013-06-30 20:06:00,64.6,62.8,29.42,WNW,298,1.0,3.0,94,0.00,,,0.28,Wunderground v.1.15,2013-07-01 01:06:00,
2013-06-30 20:11:00,64.6,62.8,29.42,WNW,287,2.0,2.0,94,0.00,,,0.28,Wunderground v.1.15,2013-07-01 01:11:00,
2013-06-30 20:16:00,64.6,62.8,29.42,WNW,290,2.0,4.0,94,0.00,,,0.28,Wunderground v.1.15,2013-07-01 01:16:00,
2013-06-30 20:21:00,64.7,62.9,29.42,WNW,290,1.0,2.0,94,0.00,,,0.28,Wunderground v.1.15,2013-07-01 01:21:00,
2013-06-30 20:26:00,64.7,62.9,29.42,WNW,298,0.0,3.0,94,0.00,,,0.28,Wunderground v.1.15,2013-07-01 01:26:00,
2013-06-30 20:31:00,64.7,62.9,29.43,NW,305,2.0,3.0,94,0.00,,,0.28,Wunderground v.1.15,2013-07-01 01:31:00,
2013-06-30 20:36:00,64.8,63.0,29.43,NNW,329,5.0,6.0,94,0.00,,,0.28,Wunderground v.1.15,2013-07-01 01:36:00,
2013-06-30 20:41:00,65.1,62.7,29.43,North,349,6.0,8.0,92,0.00,,,0.28,Wunderground v.1.15,2013-07-01 01:41:00,
2013-06-30 20:46:00,65.2,62.5,29.43,NNW,331,4.0,9.0,91,0.00,,,0.28,Wunderground v.1.15,2013-07-01 01:46:00,
2013-06-30 20:51:00,65.3,62.6,29.43,NW,316,4.0,8.0,91,0.00,,,0.28,Wunderground v.1.15,2013-07-01 01:51:00,
2013-06-30 20:56:00,65.2,62.5,29.43,NNW,335,3.0,10.0,91,0.00,,,0.28,Wunderground v.1.15,2013-07-01 01:56:00,
2013-06-30 21:01:00,65.2,62.5,29.43,NNW,347,6.0,10.0,91,0.00,,,0.28,Wunderground v.1.15,2013-07-01 02:01:00,
2013-06-30 21:06:00,65.0,62.6,29.43,NW,320,3.0,10.0,92,0.00,,,0.28,Wunderground v.1.15,2013-07-01 02:06:00,
2013-06-30 21:11:00,64.9,62.5,29.43,NNW,329,2.0,5.0,92,0.00,,,0.28,Wunderground v.1.15,2013-07-01 02:11:00,
2013-06-30 21:16:00,64.8,62.4,29.43,WNW,294,2.0,5.0,92,0.00,,,0.28,Wunderground v.1.15,2013-07-01 02:16:00,
2013-06-30 21:21:00,64.8,62.4,29.43,WNW,293,3.0,4.0,92,0.00,,,0.28,Wunderground v.1.15,2013-07-01 02:21:00,
2013-06-30 21:26:00,64.8,62.4,29.43,NW,322,7.0,10.0,92,0.00,,,0.28,Wunderground v.1.15,2013-07-01 02:26:00,
2013-06-30 21:31:00,65.0,62.6,29.44,NNW,329,1.0,7.0,92,0.00,,,0.28,Wunderground v.1.15,2013-07-01 02:31:00,
2013-06-30 21:36:00,65.0,62.6,29.44,NW,314,4.0,8.0,92,0.00,,,0.28,Wunderground v.1.15,2013-07-01 02:36:00,
2013-06-30 21:41:00,65.0,62.6,29.44,NW,316,5.0,5.0,92,0.00,,,0.28,Wunderground v.1.15,2013-07-01 02:41:00,
2013-06-30 21:46:00,65.1,62.7,29.45,NW,319,3.0,7.0,92,0.00,,,0.28,Wunderground v.1.15,2013-07-01 02:46:00,
2013-06-30 21:51:00,65.0,62.6,29.45,WNW,290,6.0,8.0,92,0.00,,,0.28,Wunderground v.1.15,2013-07-01 02:51:00,
2013-06-30 21:57:00,64.8,62.4,29.45,NW,306,2.0,8.0,92,0.00,,,0.28,Wunderground v.1.15,2013-07-01 02:57:00,
2013-06-30 22:02:00,64.6,62.2,29.45,NNW,335,3.0,5.0,92,0.00,,,0.28,Wunderground v.1.15,2013-07-01 03:02:00,
2013-06-30 22:07:00,64.5,62.1,29.45,WNW,294,4.0,5.0,92,0.00,,,0.28,Wunderground v.1.15,2013-07-01 03:07:00,
2013-06-30 22:12:00,64.5,62.1,29.45,NW,316,3.0,7.0,92,0.00,,,0.28,Wunderground v.1.15,2013-07-01 03:12:00,
2013-06-30 22:17:00,64.5,62.1,29.45,NW,316,3.0,7.0,92,0.00,,,0.28,Wunderground v.1.15,2013-07-01 03:17:00,
2013-06-30 22:22:00,64.4,62.0,29.45,NW,309,2.0,6.0,92,0.00,,,0.28,Wunderground v.1.15,2013-07-01 03:22:00,
2013-06-30 22:27:00,64.3,61.9,29.46,West,269,3.0,6.0,92,0.00,,,0.28,Wunderground v.1.15,2013-07-01 03:27:00,
2013-06-30 22:32:00,64.2,61.8,29.46,WNW,302,0.0,5.0,92,0.00,,,0.28,Wunderground v.1.15,2013-07-01 03:32:00,
2013-06-30 22:37:00,64.1,61.7,29.45,NW,304,3.0,7.0,92,0.00,,,0.28,Wunderground v.1.15,2013-07-01 03:37:00,
2013-06-30 22:42:00,64.1,61.7,29.46,NNW,344,2.0,3.0,92,0.00,,,0.28,Wunderground v.1.15,2013-07-01 03:42:00,
2013-06-30 22:47:00,64.1,61.7,29.45,WNW,294,2.0,10.0,92,0.00,,,0.28,Wunderground v.1.15,2013-07-01 03:47:00,
2013-06-30 22:52:00,64.0,61.6,29.45,WNW,301,1.0,5.0,92,0.00,,,0.28,Wunderground v.1.15,2013-07-01 03:52:00,
2013-06-30 22:57:00,64.0,61.9,29.45,NNW,347,2.0,6.0,93,0.00,,,0.28,Wunderground v.1.15,2013-07-01 03:57:00,
2013-06-30 23:01:00,64.0,61.6,29.45,NNW,343,3.0,7.0,92,0.00,,,0.28,Wunderground v.1.15,2013-07-01 04:01:00,
2013-06-30 23:06:00,64.0,61.6,29.45,West,277,2.0,8.0,92,0.00,,,0.28,Wunderground v.1.15,2013-07-01 04:06:00,
2013-06-30 23:11:00,64.1,61.7,29.45,WNW,301,2.0,4.0,92,0.00,,,0.28,Wunderground v.1.15,2013-07-01 04:11:00,
2013-06-30 23:16:00,64.0,61.6,29.45,WNW,300,3.0,6.0,92,0.00,,,0.28,Wunderground v.1.15,2013-07-01 04:16:00,
2013-06-30 23:21:00,64.0,61.6,29.45,WNW,297,1.0,6.0,92,0.00,,,0.28,Wunderground v.1.15,2013-07-01 04:21:00,
2013-06-30 23:26:00,64.1,61.7,29.45,WNW,301,5.0,7.0,92,0.00,,,0.28,Wunderground v.1.15,2013-07-01 04:26:00,
2013-06-30 23:31:00,64.1,61.7,29.45,WNW,291,1.0,6.0,92,0.00,,,0.28,Wunderground v.1.15,2013-07-01 04:31:00,
2013-06-30 23:36:00,64.1,61.7,29.45,NW,314,3.0,6.0,92,0.00,,,0.28,Wunderground v.1.15,2013-07-01 04:36:00,
2013-06-30 23:41:00,64.1,61.7,29.45,WNW,302,3.0,9.0,92,0.00,,,0.28,Wunderground v.1.15,2013-07-01 04:41:00,
2013-06-30 23:46:00,64.1,61.7,29.45,NW,318,5.0,9.0,92,0.00,,,0.28,Wunderground v.1.15,2013-07-01 04:46:00,
2013-06-30 23:51:00,64.1,61.7,29.45,NNW,329,3.0,5.0,92,0.00,,,0.28,Wunderground v.1.15,2013-07-01 04:51:00,
2013-06-30 23:56:00,64.1,61.7,29.44,NW,314,3.0,7.0,92,0.00,,,0.28,Wunderground v.1.15,2013-07-01 04:56:00,